Tracking 30995 objects as of 7-Jul-2025
HD Live streaming from Space Station
objects crossing your sky now

SL-8 DEB *

Track SL-8 DEB * now!
10-day predictions


NORAD ID: 13029
Int'l Code: 1982-001C
Perigee: 651.2 km
Apogee: 662.8 km
Inclination: 74.0 °
Period: 97.7 minutes
Semi major axis: 7027 km
RCS: 0.0057 m2 (small)
Launch date: January 7, 1982
Source: Commonwealth of Independent States (former USSR) (CIS)
Launch site: PLESETSK MISSILE AND SPACE COMPLEX (PKMTR)

Note: This is SATELLITE DEBRIS
Your satellite tracking list
METEOR 2-11 DEB
Track 1 satellite(s)




NASA's NSSDC Master Catalog

Two Line Element Set (TLE):
1 13029U 82001C   25187.63469791  .00002338  00000-0  36454-3 0  9995
2 13029  73.9688  44.9893 0008204 211.9759 209.3050 14.73520860245111
Source of the keplerian elements: AFSPC